Weather History for Cavalier, ND

Change the Weather History Date:

Sunday, January 19, 2014

  Actual Average (KGAF) Record (KGAF)
Temperature  
Mean Temperature 18 °F -  
Max Temperature 35 °F 16 °F 38 °F (1968)
Min Temperature 1 °F -3 °F -32 °F (1970)
Degree Days  
Heating Degree Days 47    
Moisture  
Dew Point 14 °F    
Average Humidity 83    
Maximum Humidity 93    
Minimum Humidity 70    
Precipitation  
Precipitation 0.00 in - - ()
Sea Level Pressure  
Sea Level Pressure 29.61 in    
Wind  
Wind Speed 12 mph (North)    
Max Wind Speed 20 mph    
Max Gust Speed 25 mph    
Visibility 9 miles    
Events Rain , Snow    
Averages and records for this station are not official NWS values.
T = Trace of Precipitation, MM = Missing Value Source: NWS Daily Summary

Daily Weather History Graph

Daily Weather History Graph

Search for Another Location

Airport:

Trip Planner

Search our weather history database for the weather conditions in past years. The results will help you decide how hot, cold, wet, or windy it might be!

Date:

Astronomy

Jan. 19, 2014 Rise Set
Actual Time 8:15 AM CST 5:07 PM CST
Civil Twilight 7:39 AM CST 5:43 PM CST
Nautical Twilight 7:00 AM CST 6:22 PM CST
Astronomical Twilight 6:23 AM CST 6:59 PM CST
Moon 9:09 PM CST (1/19) 9:25 AM CST (1/19)
Length of Visible Light 10h 03m
Length of Day
8h 52m
Waning Gibbous, 89% of the Moon is Illuminated
Jan 19
Waning Gibbous
Jan 23
Last Quarter
Jan 30
New
Feb 6
First Quarter
Feb 14
Full

Hourly Weather History & Observations

Time (CST) Temp. Windchill Dew Point Humidity Pressure Visibility Wind Dir Wind Speed Gust Speed Precip Events Conditions
12:15 AM 35.6 °F 25.9 °F 26.6 °F 70% 29.45 in 10.0 mi NW 16.1 mph - N/A   Clear
12:35 AM 33.8 °F 22.5 °F 26.6 °F 75% 29.46 in 10.0 mi NW 19.6 mph - N/A   Clear
12:55 AM 33.8 °F 22.5 °F 26.6 °F 75% 29.46 in 10.0 mi NW 19.6 mph 25.3 mph N/A   Clear
1:15 AM 32.0 °F 20.8 °F 26.6 °F 80% 29.46 in 10.0 mi NW 17.3 mph - N/A   Clear
1:35 AM 32.0 °F 21.2 °F 26.6 °F 80% 29.47 in 10.0 mi NW 16.1 mph 20.7 mph N/A   Clear
1:55 AM 32.0 °F 22.5 °F 24.8 °F 75% 29.47 in 10.0 mi NW 12.7 mph 18.4 mph N/A   Clear
2:15 AM 32.0 °F 22.5 °F 24.8 °F 75% 29.47 in 10.0 mi NW 12.7 mph - N/A   Clear
2:35 AM 32.0 °F 22.5 °F 24.8 °F 75% 29.47 in 10.0 mi NNW 12.7 mph - N/A   Clear
2:55 AM 32.0 °F 23.0 °F 24.8 °F 75% 29.48 in 10.0 mi NW 11.5 mph - N/A   Partly Cloudy
3:15 AM 32.0 °F 24.2 °F 24.8 °F 75% 29.49 in 10.0 mi NW 9.2 mph - N/A   Mostly Cloudy
3:35 AM 30.2 °F 22.6 °F 24.8 °F 80% 29.50 in 10.0 mi WNW 8.1 mph - N/A   Overcast
3:55 AM 32.0 °F 24.8 °F 24.8 °F 75% 29.50 in 10.0 mi NNW 8.1 mph - N/A   Overcast
4:15 AM 32.0 °F 23.6 °F 24.8 °F 75% 29.50 in 10.0 mi North 10.4 mph - N/A   Overcast
4:35 AM 32.0 °F 22.5 °F 26.6 °F 80% 29.51 in 10.0 mi North 12.7 mph - N/A   Overcast
4:55 AM 32.0 °F 22.5 °F 24.8 °F 75% 29.51 in 10.0 mi North 12.7 mph 18.4 mph N/A   Overcast
5:15 AM 28.4 °F 19.1 °F 23.0 °F 80% 29.51 in 10.0 mi NNE 10.4 mph - N/A   Overcast
5:35 AM 26.6 °F 19.1 °F 23.0 °F 86% 29.52 in 10.0 mi NE 6.9 mph - N/A   Overcast
5:55 AM 26.6 °F 18.2 °F 23.0 °F 86% 29.51 in 10.0 mi NE 8.1 mph - N/A   Overcast
6:15 AM 24.8 °F 16.1 °F 23.0 °F 93% 29.52 in 9.0 mi NE 8.1 mph - N/A   Overcast
6:35 AM 24.8 °F 16.1 °F 23.0 °F 93% 29.52 in 10.0 mi NE 8.1 mph - N/A   Overcast
6:55 AM 24.8 °F 19.1 °F 21.2 °F 86% 29.52 in 9.0 mi NE 4.6 mph - N/A   Overcast
7:15 AM 23.0 °F 17.0 °F 19.4 °F 86% 29.52 in 10.0 mi NNE 4.6 mph - N/A   Overcast
7:35 AM 23.0 °F 14.7 °F 19.4 °F 86% 29.54 in 10.0 mi NNE 6.9 mph - N/A   Overcast
7:55 AM 23.0 °F 14.7 °F 19.4 °F 86% 29.54 in 10.0 mi North 6.9 mph - N/A   Overcast
8:15 AM 23.0 °F 15.8 °F 17.6 °F 80% 29.53 in 10.0 mi NNE 5.8 mph - N/A   Overcast
8:35 AM 23.0 °F 14.7 °F 17.6 °F 80% 29.53 in 10.0 mi North 6.9 mph - N/A   Overcast
8:55 AM 23.0 °F 14.7 °F 17.6 °F 80% 29.55 in 10.0 mi North 6.9 mph - N/A   Overcast
9:15 AM 21.2 °F 12.6 °F 15.8 °F 80% 29.54 in 10.0 mi NNE 6.9 mph - N/A   Overcast
9:35 AM 21.2 °F 13.6 °F 15.8 °F 80% 29.53 in 10.0 mi NE 5.8 mph - N/A   Overcast
9:55 AM 21.2 °F 10.9 °F 17.6 °F 86% 29.54 in 10.0 mi North 9.2 mph - N/A   Overcast
10:15 AM 19.4 °F 7.9 °F 15.8 °F 86% 29.55 in 10.0 mi North 10.4 mph - N/A   Overcast
10:35 AM 19.4 °F 8.6 °F 15.8 °F 86% 29.55 in 10.0 mi North 9.2 mph - N/A   Overcast
10:55 AM 19.4 °F 8.6 °F 15.8 °F 86% 29.57 in 10.0 mi NNE 9.2 mph - N/A   Overcast
11:15 AM 17.6 °F 4.3 °F 14.0 °F 86% 29.57 in 10.0 mi NNE 12.7 mph - N/A   Overcast
11:35 AM 17.6 °F 4.3 °F 14.0 °F 86% 29.57 in 10.0 mi NNE 12.7 mph - N/A   Overcast
11:55 AM 17.6 °F 4.3 °F 12.2 °F 79% 29.58 in 10.0 mi North 12.7 mph - N/A   Overcast
12:15 PM 15.8 °F 2.7 °F 10.4 °F 79% 29.57 in 10.0 mi NNE 11.5 mph - N/A   Overcast
12:35 PM 15.8 °F 4.2 °F 12.2 °F 86% 29.57 in 10.0 mi North 9.2 mph - N/A   Overcast
12:55 PM 15.8 °F 3.4 °F 12.2 °F 86% 29.59 in 10.0 mi North 10.4 mph - N/A   Overcast
1:15 PM 15.8 °F 2.7 °F 10.4 °F 79% 29.60 in 10.0 mi North 11.5 mph - N/A   Overcast
1:35 PM 15.8 °F 4.2 °F 10.4 °F 79% 29.60 in 10.0 mi North 9.2 mph - N/A   Overcast
1:55 PM 15.8 °F 2.7 °F 10.4 °F 79% 29.60 in 10.0 mi North 11.5 mph - N/A   Overcast
2:15 PM 15.8 °F 5.1 °F 10.4 °F 79% 29.61 in 10.0 mi North 8.1 mph - N/A   Overcast
2:35 PM 15.8 °F 5.1 °F 10.4 °F 79% 29.60 in 10.0 mi NNW 8.1 mph - N/A   Overcast
2:55 PM 15.8 °F 2.7 °F 10.4 °F 79% 29.63 in 10.0 mi North 11.5 mph 16.1 mph N/A   Overcast
3:15 PM 14.0 °F 0.5 °F 8.6 °F 79% 29.63 in 10.0 mi North 11.5 mph - N/A   Overcast
3:35 PM 14.0 °F 0.5 °F 8.6 °F 79% 29.64 in 10.0 mi North 11.5 mph - N/A Snow Light Snow
3:55 PM 14.0 °F 0.5 °F 8.6 °F 79% 29.66 in 8.0 mi North 11.5 mph - N/A Snow Light Snow
4:15 PM 14.0 °F 1.2 °F 8.6 °F 79% 29.66 in 6.0 mi North 10.4 mph - N/A Rain Light Freezing Rain
4:35 PM 12.2 °F -1.8 °F 8.6 °F 85% 29.67 in 5.0 mi North 11.5 mph - N/A Snow Light Snow
4:55 PM 10.4 °F -2.4 °F 8.6 °F 92% 29.68 in 7.0 mi North 9.2 mph - N/A Rain Light Freezing Rain
5:15 PM 10.4 °F -4.1 °F 8.6 °F 92% 29.68 in 9.0 mi North 11.5 mph - N/A Rain Light Freezing Rain
5:35 PM 10.4 °F -4.1 °F 6.8 °F 85% 29.70 in 9.0 mi North 11.5 mph - N/A Rain Light Freezing Rain
5:55 PM 10.4 °F -4.1 °F 6.8 °F 85% 29.71 in 7.0 mi North 11.5 mph - N/A Snow Light Snow
6:15 PM 8.6 °F -6.3 °F 6.8 °F 92% 29.71 in 5.0 mi North 11.5 mph - N/A Snow Light Snow
7:15 PM 8.6 °F -5.5 °F 5.0 °F 85% 29.72 in 7.0 mi North 10.4 mph - N/A Rain Light Freezing Rain
7:35 PM 8.6 °F -5.5 °F 5.0 °F 85% 29.73 in 5.0 mi North 10.4 mph 17.3 mph N/A Rain Light Freezing Rain
7:55 PM 6.8 °F -10.0 °F 5.0 °F 92% 29.75 in 10.0 mi North 13.8 mph - N/A Rain Light Freezing Rain
8:15 PM 6.8 °F -8.6 °F 5.0 °F 92% 29.76 in 6.0 mi North 11.5 mph - N/A Rain Light Freezing Rain
8:35 PM 6.8 °F -7.8 °F 3.2 °F 85% 29.78 in 6.0 mi North 10.4 mph - N/A Rain Light Freezing Rain
8:55 PM 6.8 °F -6.9 °F 3.2 °F 85% 29.78 in 7.0 mi North 9.2 mph - N/A Rain Light Freezing Rain
9:15 PM 5.0 °F -11.6 °F 1.4 °F 85% 29.80 in 7.0 mi NNW 12.7 mph - N/A Rain Light Freezing Rain
9:35 PM 5.0 °F -10.8 °F 1.4 °F 85% 29.81 in 10.0 mi NNW 11.5 mph - N/A Rain Light Freezing Rain
9:55 PM 5.0 °F -11.6 °F 1.4 °F 85% 29.82 in 8.0 mi North 12.7 mph - N/A Rain Light Freezing Rain
10:15 PM 5.0 °F -10.8 °F -0.4 °F 78% 29.82 in 10.0 mi North 11.5 mph - N/A Rain Light Freezing Rain
10:35 PM 5.0 °F -12.3 °F -0.4 °F 78% 29.85 in 9.0 mi North 13.8 mph - N/A Rain Light Freezing Rain
10:55 PM 3.2 °F -16.5 °F -0.4 °F 85% 29.86 in 6.0 mi North 17.3 mph 21.9 mph N/A Rain Light Freezing Rain
11:15 PM 3.2 °F -14.6 °F -0.4 °F 85% 29.87 in 10.0 mi North 13.8 mph - N/A   Overcast
11:35 PM 1.4 °F -16.9 °F -0.4 °F 92% 29.88 in 10.0 mi North 13.8 mph - N/A   Overcast
11:55 PM 1.4 °F -18.2 °F -0.4 °F 92% 29.89 in 9.0 mi North 16.1 mph - N/A Rain Light Freezing Rain